Hourly Weather 3 internacional

Today, 29 October, Thursday

Time Temperature Precipitation Wind Pressure Humidity
00:00 -2°C° 0 mm 1 mps 768 mmHg 79%
01:00 -3°C° 0 mm 1 mps 768 mmHg 80%
02:00 -3°C° 0 mm 1 mps 769 mmHg 80%
03:00 -3°C° 0 mm 1 mps 769 mmHg 81%
04:00 -5°C° 0 mm 0 mps 769 mmHg 82%
05:00 -3°C° 0 mm 1 mps 769 mmHg 79%
06:00 -2°C° 0 mm 1 mps 770 mmHg 75%
07:00 -1°C° 0 mm 1 mps 770 mmHg 72%
08:00 -1°C° 0 mm 2 mps 770 mmHg 62%
09:00 +3°C° 0 mm 2 mps 770 mmHg 52%
10:00 +5°C° 0 mm 3 mps 770 mmHg 43%
11:00 +7°C° 0 mm 3 mps 770 mmHg 38%
12:00 +8°C° 0 mm 3 mps 770 mmHg 33%
13:00 +10°C° 0 mm 3 mps 769 mmHg 28%
14:00 +9°C° 0 mm 3 mps 769 mmHg 29%
15:00 +9°C° 0 mm 3 mps 769 mmHg 29%
16:00 +8°C° 0 mm 3 mps 769 mmHg 30%
17:00 +6°C° 0 mm 4 mps 769 mmHg 34%
18:00 +4°C° 0 mm 4 mps 769 mmHg 38%
19:00 +3°C° 0 mm 4 mps 769 mmHg 42%
20:00 +1°C° 0 mm 4 mps 768 mmHg 43%
21:00 +1°C° 0 mm 4 mps 768 mmHg 44%
22:00 0°C° 0 mm 4 mps 768 mmHg 46%
23:00 0°C° 0 mm 4 mps 768 mmHg 46%

Tomorrow, 30 October, Friday

Time Temperature Precipitation Wind Pressure Humidity
00:00 0°C° 0 mm 4 mps 768 mmHg 46%
01:00 0°C° 0 mm 4 mps 767 mmHg 47%
02:00 0°C° 0 mm 4 mps 767 mmHg 46%
03:00 0°C° 0 mm 4 mps 767 mmHg 46%
04:00 0°C° 0 mm 5 mps 767 mmHg 46%
05:00 0°C° 0 mm 5 mps 767 mmHg 46%
06:00 0°C° 0 mm 5 mps 767 mmHg 46%
07:00 0°C° 0 mm 5 mps 766 mmHg 46%
08:00 +3°C° 0 mm 6 mps 766 mmHg 39%
09:00 +5°C° 0 mm 7 mps 766 mmHg 33%
10:00 +9°C° 0 mm 7 mps 766 mmHg 27%
11:00 +10°C° 0 mm 8 mps 765 mmHg 26%
12:00 +11°C° 0 mm 8 mps 765 mmHg 24%
13:00 +13°C° 0 mm 8 mps 764 mmHg 23%
14:00 +12°C° 0 mm 7 mps 764 mmHg 24%
15:00 +11°C° 0 mm 7 mps 764 mmHg 26%
16:00 +11°C° 0 mm 6 mps 764 mmHg 27%
17:00 +9°C° 0 mm 6 mps 764 mmHg 30%
18:00 +8°C° 0 mm 6 mps 764 mmHg 32%
19:00 +7°C° 0 mm 6 mps 764 mmHg 35%
20:00 +5°C° 0 mm 6 mps 763 mmHg 35%
21:00 +6°C° 0 mm 5 mps 763 mmHg 36%
22:00 +5°C° 0 mm 5 mps 763 mmHg 36%
23:00 +5°C° 0 mm 5 mps 763 mmHg 36%

Day after tomorrow, 31 October, Saturday

Time Temperature Precipitation Wind Pressure Humidity
00:00 +5°C° 0 mm 5 mps 763 mmHg 37%
01:00 +3°C° 0 mm 5 mps 763 mmHg 37%
02:00 +3°C° 0 mm 5 mps 762 mmHg 38%
03:00 +3°C° 0 mm 5 mps 762 mmHg 38%
04:00 +2°C° 0 mm 5 mps 762 mmHg 38%
05:00 +2°C° 0 mm 5 mps 762 mmHg 39%
06:00 +2°C° 0 mm 5 mps 762 mmHg 40%
07:00 +2°C° 0 mm 5 mps 762 mmHg 41%
08:00 +5°C° 0 mm 6 mps 762 mmHg 36%
09:00 +9°C° 0 mm 7 mps 761 mmHg 32%
10:00 +11°C° 0 mm 7 mps 761 mmHg 27%
11:00 +14°C° 0 mm 7 mps 761 mmHg 25%
12:00 +15°C° 0 mm 7 mps 760 mmHg 23%
13:00 +16°C° 0 mm 7 mps 760 mmHg 21%
14:00 +16°C° 0 mm 7 mps 760 mmHg 22%
15:00 +15°C° 0 mm 6 mps 760 mmHg 23%
16:00 +14°C° 0 mm 5 mps 759 mmHg 24%
17:00 +13°C° 0 mm 5 mps 759 mmHg 28%
18:00 +10°C° 0 mm 5 mps 759 mmHg 31%
19:00 +8°C° 0 mm 5 mps 759 mmHg 34%
20:00 +7°C° 0 mm 5 mps 759 mmHg 36%
21:00 +7°C° 0 mm 5 mps 759 mmHg 38%
22:00 +7°C° 0 mm 5 mps 759 mmHg 39%
23:00 +6°C° 0 mm 5 mps 759 mmHg 41%

1 November, Sunday

Time Temperature Precipitation Wind Pressure Humidity
00:00 +6°C° 0 mm 5 mps 759 mmHg 43%
01:00 +5°C° 0 mm 4 mps 758 mmHg 44%
02:00 +5°C° 0 mm 4 mps 758 mmHg 46%
03:00 +4°C° 0 mm 4 mps 758 mmHg 47%
04:00 +4°C° 0 mm 4 mps 758 mmHg 48%
05:00 +4°C° 0 mm 4 mps 758 mmHg 49%
06:00 +3°C° 0 mm 4 mps 758 mmHg 50%
07:00 +3°C° 0 mm 4 mps 758 mmHg 51%
08:00 +6°C° 0 mm 4 mps 758 mmHg 44%
09:00 +8°C° 0 mm 5 mps 758 mmHg 37%
10:00 +12°C° 0 mm 5 mps 758 mmHg 30%
11:00 +13°C° 0 mm 4 mps 758 mmHg 27%
12:00 +15°C° 0 mm 4 mps 758 mmHg 24%
13:00 +18°C° 0 mm 3 mps 757 mmHg 20%
14:00 +17°C° 0 mm 3 mps 757 mmHg 22%
15:00 +15°C° 0 mm 2 mps 757 mmHg 24%
16:00 +14°C° 0 mm 2 mps 757 mmHg 26%
17:00 +13°C° 0 mm 2 mps 757 mmHg 29%
18:00 +10°C° 0 mm 3 mps 757 mmHg 32%
19:00 +9°C° 0 mm 3 mps 757 mmHg 35%
20:00 +8°C° 0 mm 3 mps 757 mmHg 37%
21:00 +7°C° 0 mm 3 mps 757 mmHg 39%
22:00 +5°C° 0 mm 3 mps 757 mmHg 41%
23:00 +6°C° 0 mm 2 mps 757 mmHg 44%

2 November, Monday

Time Temperature Precipitation Wind Pressure Humidity
00:00 +5°C° 0 mm 2 mps 757 mmHg 47%
01:00 +4°C° 0 mm 2 mps 757 mmHg 49%
02:00 +4°C° 0 mm 2 mps 758 mmHg 49%
03:00 +4°C° 0 mm 2 mps 758 mmHg 49%
04:00 +4°C° 0 mm 2 mps 758 mmHg 49%
05:00 +4°C° 0 mm 2 mps 758 mmHg 48%
06:00 +4°C° 0 mm 2 mps 758 mmHg 46%
07:00 +5°C° 0 mm 2 mps 759 mmHg 45%
08:00 +8°C° 0 mm 2 mps 759 mmHg 38%
09:00 +12°C° 0 mm 2 mps 759 mmHg 31%
10:00 +14°C° 0 mm 2 mps 759 mmHg 24%
11:00 +16°C° 0 mm 2 mps 759 mmHg 21%
12:00 +18°C° 0 mm 2 mps 759 mmHg 19%
13:00 +19°C° 0 mm 2 mps 759 mmHg 16%
14:00 +18°C° 0 mm 2 mps 759 mmHg 17%
15:00 +17°C° 0 mm 2 mps 759 mmHg 19%
16:00 +16°C° 0 mm 2 mps 759 mmHg 20%
17:00 +13°C° 0 mm 3 mps 759 mmHg 22%
18:00 +12°C° 0 mm 3 mps 759 mmHg 24%
19:00 +10°C° 0 mm 3 mps 760 mmHg 26%
20:00 +9°C° 0 mm 3 mps 760 mmHg 28%
21:00 +9°C° 0 mm 3 mps 760 mmHg 29%
22:00 +8°C° 0 mm 3 mps 760 mmHg 31%
23:00 +8°C° 0 mm 3 mps 760 mmHg 33%

3 November, Tuesday

Time Temperature Precipitation Wind Pressure Humidity
00:00 +8°C° 0 mm 3 mps 761 mmHg 35%
01:00 +7°C° 0 mm 3 mps 761 mmHg 36%
02:00 +7°C° 0 mm 3 mps 761 mmHg 38%
03:00 +5°C° 0 mm 4 mps 761 mmHg 40%
04:00 +5°C° 0 mm 4 mps 761 mmHg 42%
05:00 +4°C° 0 mm 4 mps 762 mmHg 52%
06:00 +3°C° 0 mm 5 mps 762 mmHg 61%
07:00 +2°C° 0 mm 5 mps 762 mmHg 71%
08:00 +5°C° 0 mm 5 mps 763 mmHg 62%
09:00 +5°C° 0 mm 6 mps 763 mmHg 54%
10:00 +8°C° 0 mm 6 mps 763 mmHg 45%
11:00 +8°C° 0 mm 6 mps 763 mmHg 42%
12:00 +9°C° 0 mm 6 mps 763 mmHg 40%
13:00 +10°C° 0 mm 6 mps 763 mmHg 38%
14:00 +10°C° 0 mm 6 mps 763 mmHg 39%
15:00 +9°C° 0 mm 5 mps 764 mmHg 39%
16:00 +8°C° 0 mm 5 mps 764 mmHg 40%
17:00 +7°C° 0 mm 5 mps 764 mmHg 43%
18:00 +5°C° 0 mm 5 mps 764 mmHg 47%
19:00 +3°C° 0 mm 5 mps 765 mmHg 50%
20:00 +2°C° 0 mm 5 mps 765 mmHg 54%
21:00 +1°C° 0 mm 5 mps 765 mmHg 58%
22:00 0°C° 0 mm 5 mps 765 mmHg 61%
23:00 0°C° 0 mm 5 mps 765 mmHg 64%
Show more